Flag for Canada Weather past 2 weeks in Churchill, Manitoba, Canada

Now
30 °F

Overcast.


Feels Like: 19 °F
Forecast: 27 / 49 °F
Wind: 16 mph from North

Location: Churchill

Current Time: May 23, 2015 at 1:37:31 AM

Latest Report: May 23, 2015 at 1:00 AM


Visibility: 10 mi

Pressure: 30.14 "Hg

Humidity: 93%

Dew point: 28 °F

Location of ChurchillLocation

Historic Weather in Churchill — Graph

°F

Churchill temperature yesterday

Maximum temperature yesterday: 54 °F (at 9:00 AM)
Minimum temperature yesterday: 32 °F (at 10:00 PM)
Average temperature yesterday: 38 °F

Past Weeks' High & Low Weather Summary

 TemperatureHumidityPressure
High70 °F (May 15, 4:00 PM)100% (May 8, 2:00 AM)30.58 "Hg (May 8, 2:00 AM)
Low9 °F (May 9, 5:00 AM)28% (May 15, 7:00 PM)29.62 "Hg (May 15, 10:00 PM)
Average32 °F76%30.21 "Hg
* Reported Midnight between May 7 and May 8 — Midnight between May 22 and May 23, Churchill, Weather by CustomWeather, © 2015

Note: Actual official high and low records may vary slightly from our data, if they occured in-between our weather recording intervals... More about our weather records

Advertising

Churchill weather history for previous 24 hours

 ConditionsComfort  
Time TempWeatherWind HumidityBarometerVisibility
12:00 AM
Sat, May 23
32 °FOvercast.16 mph87%30.13 "Hg10 mi
11:00 PM
Fri, May 22
32 °FSnow flurries. Ice fog.16 mph93%30.12 "Hg3 mi
10:00 PM32 °FIce fog.15 mph100%30.11 "Hg5 mi
9:00 PM34 °FFog.15 mph93%30.09 "Hg6 mi
8:00 PM34 °FFog.15 mph93%30.07 "Hg6 mi
7:00 PM34 °FFog.17 mph93%30.05 "Hg6 mi
6:00 PM36 °FOvercast.18 mph87%30.03 "Hg15 mi
5:00 PM36 °FOvercast.18 mph87%30.02 "Hg15 mi
4:00 PM36 °FLow clouds.21 mph87%30.00 "Hg15 mi
3:00 PM36 °FFog.20 mph87%29.98 "Hg6 mi
2:00 PM36 °FFog.17 mph93%29.96 "Hg5 mi
1:00 PM36 °FFog.20 mph93%29.93 "Hg3 mi
12:00 PM36 °FFog.23 mph93%29.90 "Hg5 mi
11:00 AM41 °FPartly sunny.22 mph76%29.86 "Hg15 mi
10:00 AM54 °FBroken clouds.9 mph51%29.84 "Hg15 mi
9:00 AM54 °FBroken clouds.13 mph44%29.84 "Hg15 mi
8:00 AM48 °FBroken clouds.13 mph50%29.85 "Hg15 mi
7:00 AM43 °FScattered clouds.15 mph57%29.87 "Hg15 mi
6:00 AM39 °FPassing clouds.13 mph65%29.90 "Hg15 mi
5:00 AM37 °FPassing clouds.15 mph70%29.92 "Hg15 mi
4:00 AM37 °FPassing clouds.15 mph65%29.94 "Hg15 mi
3:00 AM37 °FPassing clouds.14 mph70%29.97 "Hg15 mi
2:00 AM37 °FPassing clouds.13 mph75%29.99 "Hg15 mi
1:00 AM37 °FPassing clouds.13 mph70%30.01 "Hg15 mi
Weather by CustomWeather, © 2015

See weather overviewHow to use our weather pages